Temperature
21 21 20 19 18 17 16 16 16 15 15 15 15 15 14 14 14 14 13 13 13 14 14 14 14 13 13 13 13 13 13 13 14 14 14 14 14 14 14 14 13 12 12
22 22 20 19 18 17 16 16 16 15 15 15 14 14 14 13 13 13 13 13 13 13 13 13 13 13 13 13 13 13 13 14 14 14 14 13 13 13 14 14 13 12 12
22 22 20 19 18 17 16 16 16 16 16 15 14 14 13 13 13 13 13 13 13 13 13 13 13 13 13 13 13 14 14 14 14 13 13 12 12 13 14 14 13 13 12
21 21 20 19 18 16 16 16 16 16 15 14 14 13 13 13 13 13 13 13 14 14 14 14 13 13 14 14 14 14 14 14 13 13 12 12 12 13 14 14 14 13 12
20 20 20 19 18 16 16 16 16 16 15 14 14 13 13 13 13 13 13 14 14 14 14 14 14 14 14 14 14 14 14 14 13 12 12 12 12 13 13 14 14 13 13
18 19 20 19 17 16 16 16 16 16 15 14 14 13 13 13 13 13 13 14 14 14 14 14 14 14 14 14 14 14 14 13 13 12 12 12 12 13 13 13 13 13 13
18 19 19 18 18 17 16 16 16 16 15 14 14 14 13 13 13 13 13 14 14 14 14 14 14 14 13 13 13 13 13 13 13 12 12 12 12 13 13 13 13 13 13
18 18 19 18 18 17 17 16 16 16 16 15 14 14 14 13 13 13 13 14 14 14 14 14 13 13 13 13 13 13 13 13 13 12 12 12 12 13 12 13 13 13 13
18 18 18 18 17 17 17 17 16 16 16 15 15 14 14 14 13 14 14 14 14 14 13 13 13 13 13 13 13 13 13 13 13 12 12 12 12 13 12 13 12 12 12
18 17 18 18 17 17 17 17 17 17 16 16 15 15 14 14 14 14 14 14 14 14 13 13 13 13 13 13 13 13 13 13 13 13 12 12 12 12 12 12 12 12 12
17 17 17 17 17 17 16 16 17 17 17 16 16 15 14 14 14 14 14 14 14 13 13 13 13 13 13 13 13 13 13 13 12 13 12 12 12 11 11 11 11 11 11
17 17 16 16 16 16 16 16 16 16 16 16 16 15 14 13 13 13 14 14 13 13 13 13 12 12 12 12 12 12 13 12 12 12 12 12 11 10 10 10 10 10 10
18 17 17 16 16 15 15 15 15 16 16 16 15 15 14 13 13 13 13 13 13 13 13 12 12 12 12 12 12 12 12 12 12 11 11 11 10 10 9 9 9 9 9
19 18 17 16 16 15 15 15 15 15 15 15 14 14 14 13 13 13 13 13 12 12 12 12 12 12 12 12 12 12 12 11 11 11 11 10 10 9 9 9 9 9 9
20 19 18 17 16 15 15 15 14 14 14 14 14 13 14 14 13 13 12 12 12 12 12 12 12 12 12 12 12 12 11 11 10 10 10 9 9 9 9 9 9 9 9
20 19 18 17 17 16 15 15 15 14 14 14 14 14 13 13 13 13 13 12 12 12 12 12 12 12 12 12 12 12 11 10 9 9 9 9 9 8 8 8 8 8 8
20 20 19 18 17 16 16 16 15 15 14 14 14 14 13 13 13 13 13 12 12 12 12 12 12 12 12 12 11 11 11 10 9 8 8 8 8 8 8 8 8 8 8
20 20 19 19 18 17 17 16 15 15 14 14 14 14 13 13 13 13 13 12 12 12 12 12 12 12 12 11 11 10 10 10 9 8 8 8 8 8 7 8 8 8 8
20 20 20 19 18 17 17 17 16 15 15 14 14 14 13 13 13 13 13 12 12 12 12 12 12 11 11 11 11 10 10 9 9 8 8 7 7 7 7 7 7 7 7
20 20 20 19 19 18 17 16 16 15 15 14 14 13 13 13 13 13 13 12 12 12 12 12 11 11 11 11 11 10 10 9 9 8 7 7 7 7 7 6 7 7 6
19 19 19 19 19 18 17 16 16 15 15 14 14 13 13 13 13 13 13 12 12 12 12 11 11 11 11 10 10 10 9 8 8 8 7 7 6 6 5 6 6 6 6
18 18 19 19 19 18 17 17 17 16 15 14 14 13 13 13 13 13 12 12 12 12 11 11 11 10 10 10 10 9 8 8 7 7 7 7 6 5 5 5 5 5 5
17 17 18 18 18 18 17 16 15 14 14 14 13 13 13 13 13 13 12 12 12 11 11 11 10 10 10 9 9 9 8 7 7 7 6 5 5 5 5 4 4 4 4
17 17 17 17 18 18 17 16 16 15 14 14 14 13 13 13 13 12 12 11 11 11 11 10 10 10 9 9 9 8 7 6 6 6 5 5 4 4 4 3 3 3 3
17 17 17 17 17 17 17 16 16 15 15 14 14 13 13 12 12 12 11 11 11 11 10 10 10 9 9 8 8 7 6 5 4 3 4 4 4 3 3 3 3 3 2
16 17 17 17 17 17 16 15 15 15 14 14 14 12 12 12 12 11 11 11 10 10 10 10 9 9 8 8 7 6 6 4 3 3 2 3 3 3 3 3 2 1 1
Wind_Speed
12 16 21 19 17 16 15 14 13 12 12 12 15 16 16 15 14 13 12 12 12 12 14 14 14 14 15 16 15 13 12 10 8 6 5 4 6 7 8 7 7 6 6
16 19 21 20 18 16 15 14 13 11 10 11 14 15 15 14 13 12 12 12 12 13 14 17 17 17 16 15 13 11 9 8 6 3 3 1 3 7 8 8 7 6 6
18 20 21 20 18 17 16 14 13 11 10 12 14 15 14 14 13 13 12 12 12 13 13 14 15 15 14 12 10 9 8 7 5 6 9 5 6 7 7 7 6 5 4
18 19 19 21 19 17 16 14 12 11 11 13 15 15 14 13 13 13 13 13 13 13 13 14 14 13 12 11 9 8 7 5 5 9 8 5 8 8 6 6 6 6 5
17 18 21 22 20 18 16 14 12 12 12 14 15 14 14 13 12 13 13 13 13 13 13 12 12 11 9 8 7 6 5 5 8 10 6 6 11 8 6 5 5 5 5
16 19 23 22 20 18 16 14 13 12 13 14 14 13 12 11 11 11 12 12 11 11 10 10 9 8 6 5 4 4 3 5 9 7 3 9 10 7 6 5 5 4 5
15 19 22 22 21 19 17 15 13 13 13 13 13 12 11 9 9 10 12 11 10 9 8 7 7 6 4 4 4 3 2 5 10 6 5 11 9 7 7 7 8 7 6
16 17 20 22 21 20 18 15 14 13 13 12 12 11 10 8 7 9 12 11 9 7 6 5 5 5 5 5 5 3 3 6 8 5 8 11 9 8 8 9 10 10 10
16 16 15 18 19 20 20 17 15 14 13 11 11 11 10 8 7 12 13 11 8 6 5 6 7 7 6 6 4 3 5 8 9 5 11 11 10 9 11 12 13 14 16
12 15 13 15 16 16 17 18 17 15 13 12 11 12 11 9 11 15 14 11 9 8 9 8 8 7 6 5 3 4 8 11 5 12 13 11 11 11 14 15 16 17 18
9 12 14 13 13 15 16 17 17 16 14 13 12 13 11 10 12 13 14 13 11 10 9 8 6 5 5 3 2 5 8 9 8 13 12 11 11 12 13 14 14 15 15
9 10 12 14 13 13 14 15 14 13 13 13 13 13 11 11 12 14 15 13 12 11 10 7 5 4 3 2 2 5 9 12 10 13 12 13 11 12 13 13 14 14 14
11 9 10 12 13 10 8 12 10 11 13 14 15 16 14 9 13 13 11 11 11 11 8 6 5 2 5 4 5 6 6 6 9 12 14 14 12 12 12 12 13 13 13
13 12 10 10 11 11 8 8 7 7 8 8 12 17 11 6 6 8 8 10 10 8 6 4 3 6 6 7 7 7 6 5 10 12 14 15 13 12 12 12 12 12 12
10 14 12 11 11 10 10 8 7 6 7 9 10 13 12 5 5 4 5 7 8 8 5 3 5 6 6 6 7 7 6 6 9 13 13 14 13 12 12 12 12 12 12
9 12 13 13 12 11 10 9 8 6 8 9 9 11 13 10 5 4 5 5 6 6 6 5 6 4 4 4 3 4 5 6 7 13 14 13 12 11 10 10 11 12 13
9 11 13 14 14 14 12 11 9 7 9 7 9 13 13 12 10 7 6 5 5 8 7 7 6 5 3 2 2 2 3 4 4 7 13 13 11 9 7 7 9 11 12
9 10 13 14 15 15 13 11 8 7 8 7 11 13 13 14 14 9 6 5 8 9 6 4 3 3 4 4 3 2 1 2 1 5 8 10 9 6 4 3 6 9 11
11 10 11 13 15 15 14 11 9 8 9 8 10 10 12 15 16 11 6 6 10 6 4 4 5 4 4 3 3 1 1 1 1 3 3 7 7 4 0 2 4 8 10
11 11 11 13 15 13 13 10 8 9 9 8 8 9 13 14 16 12 7 7 9 6 5 5 5 4 3 3 4 1 1 1 1 2 1 3 6 6 4 2 3 6 9
10 11 11 12 14 12 11 12 11 10 8 8 8 11 13 14 15 11 7 8 7 7 6 7 5 5 3 3 3 3 1 1 1 2 2 1 1 3 4 2 2 5 7
12 12 11 11 13 14 12 11 9 7 5 5 6 9 12 14 14 11 9 8 8 7 7 7 5 4 2 4 2 2 3 2 2 2 2 2 1 1 0 2 4 6 7
14 13 12 12 11 13 13 10 8 6 5 4 6 6 8 12 12 11 10 9 9 7 7 7 5 5 4 2 4 3 3 1 4 4 3 1 1 1 2 4 5 7 7
13 13 13 12 11 12 16 16 16 12 8 6 6 7 9 9 10 13 12 10 9 8 8 7 6 4 4 3 2 2 2 3 1 4 4 3 2 3 4 4 5 7 9
9 10 12 12 11 12 15 17 17 11 8 9 10 12 9 8 9 11 13 10 10 8 8 8 6 5 3 3 2 1 1 1 2 3 5 5 4 4 5 5 6 9 11
7 7 8 11 10 11 14 15 15 15 15 16 15 14 11 9 9 10 11 10 9 8 8 8 7 6 5 4 3 2 1 0 1 1 4 4 5 5 6 7 7 8 11
Wind_Direction
128 138 145 140 134 129 123 116 110 107 110 116 119 115 108 101 93 85 76 70 65 62 61 63 72 85 91 88 81 73 66 59 55 45 39 52 64 50 38 23 358 25 51
134 140 144 140 136 132 126 119 113 111 116 124 125 119 111 103 96 87 79 74 71 70 67 65 68 73 77 77 74 69 61 51 40 356 322 279 106 67 39 21 12 12 23
132 139 143 140 137 133 127 122 117 116 120 126 126 119 112 105 98 90 83 78 77 76 74 71 71 71 72 71 68 62 53 39 8 325 308 269 146 66 39 19 6 1 360
131 140 143 140 138 134 129 124 121 120 124 127 125 119 114 109 102 93 87 84 83 81 80 77 74 72 71 70 66 61 53 28 337 322 321 73 93 60 35 14 358 350 344
133 142 139 142 140 136 132 128 125 124 125 127 125 121 118 114 108 101 95 92 89 85 83 80 76 73 71 68 62 55 42 358 324 307 309 74 86 52 32 12 351 340 332
135 134 141 143 142 139 136 133 131 131 129 128 126 125 121 116 111 109 107 103 96 89 83 78 74 72 69 63 52 41 20 330 313 308 41 76 77 39 15 3 350 333 317
134 133 146 145 146 143 141 140 140 140 138 136 133 129 123 116 113 119 121 114 105 95 82 70 63 62 59 52 47 42 358 311 295 297 71 79 61 28 11 14 15 8 351
130 136 148 150 150 148 147 147 149 149 147 145 142 135 124 116 111 130 132 124 115 103 84 65 59 66 66 61 51 26 322 303 317 351 85 80 50 24 23 27 24 25 28
131 139 149 155 155 154 152 153 156 155 155 153 148 134 120 113 120 135 136 130 123 109 91 80 82 83 79 70 52 359 322 316 310 341 71 62 42 37 45 45 45 47 48
134 143 154 160 162 161 159 159 160 160 160 158 147 134 129 127 128 134 134 131 123 110 99 93 95 99 100 92 54 345 329 321 329 63 66 55 49 57 59 55 53 53 51
146 151 160 164 166 166 165 165 161 162 163 159 150 149 154 162 151 140 134 131 127 121 116 116 124 134 131 123 47 344 336 346 44 74 56 59 64 65 60 54 50 48 48
170 170 166 168 168 168 168 163 167 168 168 173 170 172 193 199 160 140 140 139 138 135 132 140 153 178 173 118 352 1 22 5 43 78 55 67 70 69 62 55 51 47 43
179 182 173 168 167 167 160 165 172 173 172 192 184 180 200 168 129 137 142 144 147 149 152 163 180 121 81 66 24 34 41 10 58 79 62 69 70 68 62 55 48 43 37
177 179 177 168 165 168 164 170 171 173 173 192 184 179 184 151 157 164 160 163 162 156 147 153 127 94 66 54 44 24 22 39 85 95 74 74 72 68 62 55 46 39 31
185 174 177 173 168 170 170 175 176 175 173 181 173 174 168 153 170 148 127 132 130 133 139 111 79 75 62 48 37 30 19 33 84 104 92 85 79 72 64 54 44 34 24
203 177 175 177 174 174 177 179 182 178 172 173 168 178 170 165 157 124 113 115 118 119 108 97 84 76 69 61 37 32 23 29 74 114 116 101 94 83 68 52 37 25 15
211 186 175 179 179 178 182 184 186 180 173 170 168 182 175 159 139 125 122 124 128 121 103 85 81 74 71 33 27 79 58 42 41 115 130 128 119 104 80 52 27 13 5
219 198 182 181 181 181 183 187 186 184 174 172 169 178 173 152 140 131 131 134 129 114 101 89 76 75 65 34 5 17 20 113 358 99 120 127 123 111 92 46 16 1 354
220 211 190 177 179 181 181 183 189 188 179 173 170 172 168 152 143 137 133 133 127 113 103 99 64 63 59 21 321 296 19 59 162 117 127 129 126 122 76 302 349 345 342
223 217 199 177 178 178 177 178 187 191 182 172 168 166 157 148 143 134 135 135 124 116 115 111 107 76 54 356 316 319 149 98 114 151 163 141 164 185 208 278 328 347 342
236 226 213 189 181 178 177 179 186 191 182 170 164 153 146 143 139 139 138 132 129 132 136 130 122 100 47 357 0 349 327 187 164 169 160 146 249 211 196 249 346 359 339
233 231 222 207 186 182 179 178 181 171 156 140 134 134 136 137 140 143 138 135 130 126 116 112 115 115 74 32 42 29 12 342 313 231 172 198 238 10 342 335 340 323 311
224 226 225 217 199 182 168 159 145 114 96 105 118 123 125 133 138 139 134 129 127 124 125 122 124 127 136 71 54 84 96 312 321 318 274 213 201 284 281 286 289 286 293
225 219 219 216 207 182 166 164 164 169 163 162 141 127 125 129 137 137 133 130 126 123 125 124 115 115 123 133 106 67 108 121 80 316 319 323 337 317 301 294 294 287 286
232 219 212 207 200 177 168 166 169 170 148 135 132 134 134 138 139 137 133 131 129 129 127 122 122 111 103 117 119 106 85 114 197 215 278 299 317 312 319 307 292 283 276
241 234 214 197 186 167 163 164 167 167 156 151 151 151 148 146 140 134 131 129 126 127 127 126 123 116 103 95 86 84 97 163 300 267 277 299 296 290 300 288 280 272 264
Height
1495 1497 1499 1501 1503 1505 1507 1509 1511 1512 1514 1515 1517 1518 1518 1519 1520 1521 1521 1520 1521 1522 1523 1524 1525 1526 1527 1528 1529 1530 1531 1531 1532 1532 1533 1533 1533 1533 1533 1533 1533 1534 1534
1494 1496 1499 1501 1503 1505 1507 1509 1510 1512 1513 1515 1516 1518 1519 1519 1520 1520 1520 1520 1521 1522 1524 1525 1526 1527 1528 1529 1530 1531 1531 1531 1532 1532 1533 1532 1533 1533 1533 1533 1533 1533 1533
1494 1496 1499 1501 1503 1505 1507 1509 1510 1512 1513 1514 1517 1518 1519 1520 1520 1521 1521 1521 1521 1523 1524 1526 1527 1528 1529 1530 1531 1531 1531 1531 1532 1533 1533 1533 1533 1534 1533 1533 1533 1533 1533
1494 1497 1499 1502 1504 1506 1508 1509 1511 1512 1513 1515 1517 1518 1519 1520 1521 1521 1521 1522 1522 1523 1525 1527 1528 1530 1531 1531 1532 1532 1532 1532 1533 1533 1534 1535 1535 1534 1534 1533 1533 1533 1533
1495 1497 1499 1502 1504 1506 1508 1510 1511 1512 1514 1515 1517 1519 1520 1521 1522 1522 1523 1523 1524 1525 1526 1527 1529 1531 1531 1532 1532 1533 1533 1533 1534 1534 1535 1536 1535 1535 1534 1533 1533 1533 1533
1495 1496 1500 1502 1505 1507 1508 1510 1511 1513 1514 1516 1517 1519 1520 1522 1523 1523 1524 1525 1525 1526 1527 1529 1530 1531 1532 1533 1533 1534 1534 1534 1534 1535 1536 1536 1535 1535 1534 1534 1533 1533 1533
1496 1496 1500 1502 1505 1506 1508 1510 1512 1513 1515 1516 1518 1519 1521 1522 1523 1524 1525 1526 1527 1528 1529 1530 1531 1532 1533 1533 1534 1534 1534 1534 1534 1535 1536 1535 1535 1534 1534 1533 1533 1533 1532
1496 1496 1500 1502 1504 1506 1508 1510 1511 1513 1515 1516 1518 1519 1521 1522 1524 1525 1526 1527 1528 1529 1530 1531 1532 1533 1533 1534 1534 1534 1534 1534 1534 1536 1535 1534 1534 1533 1533 1532 1532 1532 1532
1496 1496 1499 1501 1503 1506 1507 1509 1511 1513 1514 1516 1517 1519 1521 1523 1524 1525 1526 1527 1529 1530 1531 1532 1533 1533 1534 1534 1534 1534 1534 1534 1535 1535 1534 1534 1533 1533 1532 1531 1531 1531 1530
1496 1496 1498 1500 1502 1504 1506 1508 1510 1512 1513 1515 1517 1519 1521 1523 1524 1525 1526 1528 1529 1530 1531 1532 1533 1533 1534 1534 1534 1534 1534 1534 1534 1534 1532 1533 1532 1531 1531 1530 1530 1529 1529
1496 1496 1497 1499 1501 1503 1505 1507 1509 1511 1512 1514 1516 1518 1521 1523 1524 1525 1526 1527 1529 1530 1531 1532 1532 1533 1533 1533 1533 1533 1533 1533 1533 1531 1531 1531 1530 1529 1529 1528 1528 1527 1526
1495 1497 1497 1498 1500 1502 1504 1506 1507 1509 1511 1513 1515 1517 1520 1522 1523 1524 1526 1527 1528 1529 1530 1531 1531 1532 1532 1532 1532 1532 1532 1532 1531 1528 1529 1528 1528 1527 1526 1526 1525 1525 1524
1492 1495 1497 1498 1499 1501 1502 1504 1506 1507 1509 1511 1513 1516 1518 1521 1522 1524 1525 1526 1527 1528 1529 1530 1530 1530 1531 1531 1531 1530 1530 1529 1528 1526 1526 1526 1526 1525 1524 1524 1523 1523 1522
1489 1491 1494 1496 1497 1499 1501 1502 1504 1506 1507 1510 1512 1514 1517 1519 1521 1523 1524 1525 1526 1527 1528 1529 1529 1529 1529 1529 1529 1528 1528 1527 1525 1524 1524 1524 1523 1523 1522 1522 1522 1521 1520
1488 1488 1490 1493 1495 1497 1499 1500 1502 1504 1506 1508 1511 1513 1515 1517 1519 1521 1522 1524 1525 1526 1527 1527 1527 1527 1527 1527 1526 1526 1525 1525 1523 1522 1521 1521 1521 1521 1521 1521 1520 1519 1519
1485 1485 1486 1489 1491 1493 1495 1497 1499 1502 1504 1506 1508 1511 1513 1515 1518 1519 1521 1522 1524 1525 1525 1526 1526 1525 1525 1524 1524 1523 1523 1522 1521 1519 1519 1519 1519 1519 1519 1519 1518 1518 1517
1481 1482 1483 1485 1487 1489 1491 1493 1496 1498 1501 1503 1505 1508 1511 1513 1515 1517 1519 1521 1522 1523 1524 1524 1524 1523 1523 1522 1521 1520 1520 1520 1519 1518 1517 1516 1517 1517 1517 1517 1516 1515 1514
1475 1477 1478 1480 1482 1484 1486 1489 1491 1494 1497 1499 1501 1504 1508 1510 1512 1514 1516 1518 1520 1521 1521 1522 1522 1521 1521 1520 1519 1518 1518 1517 1517 1517 1516 1515 1514 1514 1514 1514 1514 1513 1511
1469 1471 1473 1474 1476 1479 1481 1484 1487 1490 1493 1495 1498 1500 1503 1506 1508 1511 1513 1515 1517 1518 1519 1520 1520 1519 1519 1518 1517 1516 1516 1515 1515 1515 1514 1513 1513 1513 1512 1511 1510 1509 1508
1461 1464 1467 1468 1470 1473 1476 1478 1481 1485 1488 1491 1494 1497 1499 1502 1505 1507 1510 1512 1514 1515 1517 1517 1518 1518 1517 1516 1515 1514 1514 1513 1513 1512 1512 1512 1511 1510 1509 1508 1507 1506 1504
1453 1456 1459 1461 1462 1466 1469 1471 1474 1478 1482 1486 1489 1492 1495 1498 1501 1504 1507 1509 1511 1512 1514 1515 1515 1516 1515 1515 1514 1513 1512 1511 1511 1510 1510 1510 1509 1508 1506 1505 1504 1502 1501
1445 1447 1451 1454 1455 1458 1460 1464 1468 1472 1477 1481 1484 1487 1490 1493 1497 1500 1503 1505 1507 1509 1511 1512 1513 1513 1513 1513 1512 1510 1510 1511 1509 1508 1508 1507 1507 1505 1504 1503 1501 1499 1496
1438 1440 1443 1446 1449 1451 1454 1458 1462 1467 1470 1474 1477 1480 1484 1488 1492 1496 1499 1502 1504 1506 1508 1509 1510 1511 1510 1510 1509 1510 1509 1508 1507 1506 1505 1504 1503 1502 1501 1499 1496 1494 1491
1431 1434 1436 1440 1443 1446 1447 1449 1453 1457 1460 1464 1468 1472 1477 1483 1488 1492 1495 1498 1500 1503 1505 1507 1507 1508 1508 1507 1507 1506 1507 1506 1505 1503 1502 1501 1500 1499 1497 1494 1492 1489 1486
1424 1426 1429 1433 1436 1438 1439 1441 1446 1451 1454 1458 1462 1467 1473 1478 1483 1487 1491 1494 1497 1499 1502 1503 1504 1505 1505 1504 1504 1503 1502 1502 1501 1500 1497 1495 1495 1493 1491 1489 1486 1483 1480
1417 1419 1421 1424 1428 1431 1433 1435 1439 1444 1446 1450 1455 1460 1466 1472 1477 1482 1486 1490 1493 1496 1498 1500 1501 1502 1502 1501 1501 1500 1500 1499 1498 1497 1494 1490 1487 1485 1484 1482 1479 1477 1474